Miscellaneous Local Product
Issued by NWS North Platte, NE

Home | Current Version | Previous Version | Text Only | Print | Product List | Glossary On
Versions: 1 2 3 4 5 6 7 8 9 10 11 12 13 14 15 16 17 18 19 20 21 22 23 24 25 26 27 28 29 30 31 32 33 34 35 36 37 38 39 40 41 42 43 44 45 46 47 48 49 50
000
AXUS43 KLBF 240410
MISLBF


WESTERN AND NORTH CENTRAL NEBRASKA HOURLY WEATHER ROUNDUP
NATIONAL WEATHER SERVICE NORTH PLATTE NE
1100 PM CDT SAT JUL 23 2016

NOTE: "FAIR" INDICATES FEW OR NO CLOUDS BELOW 12,000 FEET WITH NO
SIGNIFICANT WEATHER AND/OR OBSTRUCTIONS TO VISIBILITY.

NOTE: STATIONS NOT REPORTING VARIABLES SUCH AS SKY/WEATHER OR
PRESSURE ARE PROVIDED BY RAWS AND APRS NETWORKS AND ARE NOT UNDER
NATIONAL WEATHER SERVICE QUALITY CONTROL.

...OBSERVATIONS IN AND NEAR THE EASTERN PANHANDLE OF NEBRASKA...

CITY           SKY/WX    TMP DP  RH WIND       PRES   REMARKS
PINE RIDGE     PTCLDY    67  53  61 NE7       30.02R
CHADRON        CLEAR     70  48  45 NE3       30.01R
ALLIANCE       PTCLDY    68  59  73 NE9       30.03R
SIDNEY         CLOUDY    74  55  51 S12       30.08R
CRESCENT LAKE    N/A     75  59  57 NE5         N/A
$$

...OBSERVATIONS IN NORTHERN NEBRASKA AND FAR SOUTHERN SOUTH DAKOTA...

CITY           SKY/WX    TMP DP  RH WIND       PRES   REMARKS
WINNER         FAIR      73  57  57 NW7       29.93R
VALENTINE      PTCLDY    76  53  44 N7        29.97R
THEDFORD       CLEAR     73  57  56 NE5       29.98R
AINSWORTH      CLEAR     74  57  55 N6        29.97R
O`NEILL        CLEAR     77  67  71 NW10      29.90R
ORD            CLEAR     75  68  78 NW6       29.87R
BROKEN BOW     CLEAR     72  65  78 N9        29.92R
VALENTINE NWR    N/A     74  56  52 NE3         N/A
BUTTE            N/A     79  64  59 NW14        N/A
HALSEY           N/A     77  55  46 NW5         N/A
EWING            N/A     81  70  69 NW7         N/A
$$

...OBSERVATIONS IN SOUTHWEST NEBRASKA AND FAR NORTHEAST COLORADO...

CITY           SKY/WX    TMP DP  RH WIND       PRES   REMARKS
WRAY           FAIR      79  54  41 N8        30.02R
HOLYOKE        FAIR      81  55  41 W13       30.00F
IMPERIAL       PTCLDY    80  67  64 E9        29.96R
OGALLALA       PTCLDY    78  62  57 NE6       29.97R
NORTH PLATTE   CLEAR     75  67  76 CALM      29.94R
MCCOOK         CLEAR     76  69  79 N6        29.90R
LEXINGTON      CLEAR     78  74  88 N8        29.91R
STAPLETON        N/A     75  61  62 CALM        N/A
GOTHENBURG       N/A     83  71  67 CALM        N/A
CALLAWAY         N/A     74  69  85 N6          N/A
$$

...OBSERVATIONS IN CENTRAL LINCOLN COUNTY AREA...

CITY           SKY/WX    TMP DP  RH WIND       PRES   REMARKS
N.P. AIRPORT   CLEAR     75  67  76 CALM      29.94R
N.P. DOWNTOWN    N/A     80  65  61 NE3         N/A
N.P. SOUTHEAST   N/A     80  65  59 CALM        N/A
N.P. HILLCREST   N/A     79  63  57 NE17        N/A
$$

...SOME OBSERVATIONS FROM AROUND THE REGION...

CITY           SKY/WX    TMP DP  RH WIND       PRES   REMARKS
DENVER         MOCLDY    74  51  44 SE21      30.13S
LARAMIE        CLOUDY    71  33  24 CALM      30.24R
CHEYENNE       CLOUDY    74  45  35 SW13      30.18R
SCOTTSBLUFF    CLEAR     71  58  63 NE9       30.02R
RAPID CITY     CLEAR     69  41  36 N13       30.02R
BISMARCK       CLEAR     73  56  54 NW9       29.89R
PIERRE         CLEAR     69  56  62 N6        29.89R
SIOUX FALLS    PTCLDY    84  76  76 SW6       29.78R HX  93
OMAHA          CLOUDY    85  76  74 S8        29.80R HX  94
GRAND ISLAND   CLEAR     80  74  81 CALM      29.86R
KANSAS CITY    CLOUDY    84  72  67 S13       29.87S
WICHITA        CLOUDY    89  68  49 S14       29.88R HX  93
OKLAHOMA CITY  CLEAR     83  67  58 S7        29.93R
DALLAS         CLEAR     89  70  53 SE10      29.91R HX  94
AMARILLO       CLEAR     83  54  36 S12       30.00R
DODGE CITY     CLOUDY    84  59  42 S14       29.89R
HAYS           CLOUDY    88  59  37 S10       29.85R
GOODLAND       CLEAR     72  59  63 CALM      29.98R
$$




USA.gov is the U.S. government's official web portal to all federal, state and local government web resources and services.